Home > Time Zones > World Clock > Weather > India > Thane > Past weeks

Flag for India Weather past 2 weeks in Thane, Maharashtra, India

Now
86 °F

Haze.


Feels Like: 93 °F
Forecast: 77 / 90 °F
Wind: 9 mph from Northwest

Location: Mumbai / Santacruz

Current Time: Sep 4, 2015 at 7:04:21 PM

Latest Report: Sep 4, 2015 at 6:40 PM


Visibility: 3 mi

Pressure: 29.83 "Hg

Humidity: 66%

Dew point: 73 °F

Location of ThaneLocation

Historic Weather in Thane — Graph

°F

Thane temperature yesterday

Maximum temperature yesterday: 88 °F (at 1:10 PM)
Minimum temperature yesterday: 79 °F (at 3:10 AM)
Average temperature yesterday: 83 °F

Past Weeks' High & Low Weather Summary

 TemperatureHumidityPressure
High90 °F (Sep 4, 2:40 PM)94% (Aug 23, 6:40 AM)29.89 "Hg (Aug 23, 6:40 AM)
Low77 °F (Sep 2, 5:10 AM)52% (Sep 4, 2:40 PM)29.68 "Hg (Aug 26, 4:10 PM)
Average83 °F80%29.77 "Hg
* Reported Aug 20 5:40 PM — Sep 4 5:40 PM, Thane, Weather by CustomWeather, © 2015

Note: Actual official high and low records may vary slightly from our data, if they occured in-between our weather recording intervals... More about our weather records

Advertising

Thane weather history for previous 24 hours

 ConditionsComfort  
Time TempWeatherWind HumidityBarometerVisibility
5:40 PM
Fri, Sep 4
88 °FHaze.9 mph62%29.83 "Hg3 mi
4:40 PM88 °FPassing clouds.10 mph62%29.83 "Hg4 mi
4:10 PM88 °FPassing clouds.8 mph59%29.83 "Hg4 mi
3:40 PM90 °FScattered clouds.12 mph52%29.83 "Hg4 mi
3:10 PM88 °FScattered clouds.12 mph59%29.83 "Hg4 mi
2:40 PM90 °FScattered clouds.13 mph52%29.86 "Hg3 mi
2:10 PM88 °FScattered clouds.12 mph62%29.86 "Hg3 mi
1:40 PM88 °FScattered clouds.9 mph59%29.86 "Hg3 mi
1:10 PM88 °FScattered clouds.9 mph59%29.86 "Hg3 mi
12:10 PM88 °FPartly sunny.5 mph59%29.89 "Hg3 mi
11:40 AM88 °FPartly sunny.6 mph59%29.89 "Hg2 mi
11:10 AM88 °FPartly sunny.5 mph59%29.89 "Hg2 mi
10:40 AM86 °FPartly sunny.3 mph66%29.89 "Hg2 mi
10:10 AM86 °FScattered clouds.7 mph66%29.89 "Hg2 mi
9:40 AM84 °FScattered clouds.5 mph70%29.89 "Hg2 mi
9:10 AM84 °FScattered clouds.7 mph70%29.89 "Hg2 mi
8:40 AM82 °FHaze.6 mph74%29.89 "Hg2 mi
7:40 AM81 °FHaze.6 mph79%29.86 "Hg1 mi
7:10 AM81 °FScattered clouds.6 mph84%29.86 "Hg1 mi
6:40 AM81 °FPassing clouds.5 mph79%29.83 "Hg2 mi
5:40 AM79 °FPassing clouds.5 mph89%29.83 "Hg2 mi
4:40 AM81 °FPassing clouds.6 mph84%29.80 "Hg2 mi
4:10 AM81 °FPassing clouds.5 mph84%29.80 "Hg2 mi
3:40 AM81 °FPassing clouds.3 mph84%29.80 "Hg2 mi
2:40 AM81 °FPassing clouds.5 mph84%29.80 "Hg2 mi
2:10 AM81 °FPassing clouds.5 mph84%29.80 "Hg2 mi
1:40 AM82 °FPassing clouds.No wind79%29.80 "Hg2 mi
1:10 AM82 °FPassing clouds.No wind79%29.80 "Hg2 mi
12:40 AM82 °FPassing clouds.5 mph74%29.83 "Hg2 mi
12:10 AM82 °FPassing clouds.5 mph74%29.83 "Hg2 mi
11:40 PM
Thu, Sep 3
84 °FHaze.5 mph70%29.83 "Hg2 mi
11:10 PM82 °FHaze.7 mph74%29.83 "Hg2 mi
10:40 PM84 °FHaze.7 mph70%29.83 "Hg2 mi
8:40 PM84 °FPassing clouds.7 mph70%29.80 "Hg4 mi
8:10 PM84 °FPassing clouds.9 mph70%29.80 "Hg4 mi
7:40 PM84 °FPassing clouds.8 mph70%29.80 "Hg4 mi
7:10 PM84 °FScattered clouds.9 mph70%29.77 "Hg4 mi
Weather by CustomWeather, © 2015

See weather overviewHow to use our weather pages